Location: Morisset
(33.1080°S, 151.4871°E)
Time: 09:03:44
(UTC+00:00)

Hubble Space Telescope - Pass Details

Date: 29 October 2020
Orbit: 536 x 540 km, 28.5° (Epoch: 27 November)

Event Time Altitude Azimuth Distance (km) Brightness Sun altitude
Exits shadow 18:04:00 16° 307° (NW) 1,479 2.4 -11.2°
Maximum altitude 18:05:50 20° 341° (NNW) 1,273 2.3 -10.8°
Drops below altitude 10° 18:08:55 10° 29° (NNE) 1,793 3.5 -10.2°
Sets 18:11:37 0° 46° (NE) 2,680 4.6 -9.7°
